This is the latest recevied weather packets stored in our database for station/object YO6FNF-10. If no packets are shown the sender has not sent any weather packets the latest 10 day(s).
| Time | Temp. | Humidity | Pressure | Rain* | Wind** | Luminosity | Snow |
|---|---|---|---|---|---|---|---|
| 1778186847 | 17.22° C | 60% | 1017.1 hPa | - | - | - | - |
| 1778185947 | 17.22° C | 60% | 1017 hPa | - | - | - | - |
| 1778185046 | 17.22° C | 61% | 1017 hPa | - | - | - | - |
| 1778184146 | 17.22° C | 62% | 1017 hPa | - | - | - | - |
| 1778183246 | 17.22° C | 59% | 1017 hPa | - | - | - | - |
| 1778182346 | 17.78° C | 56% | 1016.8 hPa | - | - | - | - |
| 1778181446 | 17.78° C | 57% | 1016.8 hPa | - | - | - | - |
| 1778180545 | 17.78° C | 59% | 1016.8 hPa | - | - | - | - |
| 1778179645 | 18.33° C | 54% | 1016.8 hPa | - | - | - | - |
| 1778178745 | 18.89° C | 48% | 1016.7 hPa | - | - | - | - |
| 1778177845 | 19.44° C | 44% | 1016.4 hPa | - | - | - | - |
| 1778176945 | 19.44° C | 44% | 1016 hPa | - | - | - | - |
| 1778176044 | 19.44° C | 44% | 1015.9 hPa | - | - | - | - |
| 1778175144 | 20° C | 40% | 1015.9 hPa | - | - | - | - |
| 1778174244 | 20.56° C | 42% | 1015.8 hPa | - | - | - | - |
| 1778173344 | 20.56° C | 42% | 1015.8 hPa | - | - | - | - |
| 1778172444 | 21.67° C | 39% | 1015.5 hPa | - | - | - | - |
| 1778171544 | 22.22° C | 40% | 1015.3 hPa | - | - | - | - |
| 1778170643 | 22.22° C | 38% | 1015.2 hPa | - | - | - | - |
| 1778169743 | 22.78° C | 41% | 1015.1 hPa | - | - | - | - |
| 1778168843 | 23.33° C | 40% | 1015 hPa | - | - | - | - |
| 1778167943 | 23.33° C | 38% | 1015 hPa | - | - | - | - |
| 1778167043 | 25° C | 35% | 1014.9 hPa | - | - | - | - |
| 1778166142 | 26.67° C | 30% | 1014.9 hPa | - | - | - | - |
| 1778165242 | 26.11° C | 30% | 1014.9 hPa | - | - | - | - |
* Rain since midnight (hover to see other rain measurements)
** Current wind speed in m/s (hover to see current wind gust speed)